Starlink 34174

operational
NORAD ID: 64097 Int'l Des: 2025-110 Owner: SPXS Country: US Constellation: starlink
LEOCIRCULAR

About Starlink 34174

Description loading...

Live Position

Loading 3D Globe...

Upcoming Passes

Altitude History

Altitude vs Time

uPlot chart will show altitude changes over time

Two-Line Element Set

1 64097U 25110B 25352.52493756 .00013951 00000-0 48220-3 0 9991
2 64097 53.1591 43.9296 0001269 82.7170 277.3975 15.30204065 33459
Epoch: Dec 18, 2025 • Age: 18 hours

Current Status

Altitude 479.8 km
Velocity 7.63 km/s
Sub-Earth Point 48.34°N, 19.36°W
Launch Date May 23, 2025
Age 0.5 years
Type internet

Technical Details

Classification Payload
Mass 575.00 kg
Dry Mass 530.00 kg
Total Mass 575.00 kg
Length 0.30 m
Diameter 4.10 m
Span 29.00 m
Shape Box + pan
Manufacturer SPXS
Bus Type Starlink V2MO
Phase Status In Orbit
Owner/State SPXS/US

Large Constellations

Loading constellations...